Temperature
9 8 8 9 10 12 13 14 15 17 18 19 18 18 19 20 20 21 22 22 21 19 17 16 15 15 15 15 15 15 15 15 14 14 13 13 13 12 12 12 12 12 12 11
8 8 9 11 11 11 12 13 14 17 18 19 18 18 19 20 20 21 22 22 20 17 16 15 14 14 14 14 14 14 13 13 13 13 13 12 12 12 12 11 11 11 11 11
7 9 10 10 10 11 11 12 13 16 18 19 18 17 18 19 21 21 22 21 20 17 15 14 14 13 13 13 13 13 13 13 13 13 12 12 12 11 11 11 11 11 11 10
8 9 10 9 9 10 11 12 14 16 16 16 16 15 18 19 19 19 20 20 18 16 15 14 13 13 13 13 13 13 13 12 12 12 12 12 12 11 11 11 10 10 10 10
8 9 9 9 9 10 10 13 14 15 16 16 17 16 17 19 18 17 18 19 17 16 15 13 12 12 12 12 12 12 12 12 12 12 12 12 11 11 10 10 10 10 9 9
9 10 9 9 10 10 10 12 13 14 14 14 16 16 17 19 19 18 17 18 16 15 14 13 12 12 12 12 12 12 12 12 12 12 11 11 11 10 10 10 9 9 9 8
8 9 9 9 9 9 10 11 11 12 12 14 17 16 17 19 20 19 17 16 16 14 13 12 11 11 12 12 12 12 12 12 11 11 11 11 10 10 9 9 9 8 8 8
8 9 9 9 9 10 10 11 12 13 13 15 17 17 18 18 18 19 18 16 15 14 12 11 11 11 11 12 11 11 11 11 11 11 10 10 10 9 9 9 8 8 7 7
8 9 10 9 9 10 11 12 15 16 16 16 16 18 17 17 16 17 16 15 14 13 12 11 11 10 11 11 11 11 11 11 10 10 10 9 9 9 8 8 7 7 6 5
8 8 9 9 9 9 11 13 14 15 16 16 16 17 17 16 15 16 15 14 14 13 12 11 10 10 10 10 10 10 10 10 10 9 9 8 8 8 7 7 6 6 5 4
7 7 8 9 9 10 11 13 14 15 17 17 16 17 19 17 17 16 15 15 14 13 12 11 10 10 10 9 9 9 9 9 9 8 8 8 7 7 6 6 5 4 4 3
8 8 8 9 10 11 12 14 15 15 16 17 17 16 19 17 17 16 15 15 14 13 12 11 10 10 9 9 9 9 9 8 8 8 7 7 6 6 5 5 4 3 3 3
9 9 9 9 10 11 12 14 15 16 16 16 16 16 17 16 16 17 16 15 14 13 12 11 10 9 9 8 8 8 8 8 7 7 6 6 6 5 4 4 3 3 2 2
10 10 10 11 12 12 12 14 15 15 15 16 17 16 17 15 15 15 16 15 14 13 12 11 10 9 8 8 8 7 7 7 6 6 6 5 5 4 4 3 2 2 2 1
10 11 12 13 14 14 14 14 15 15 15 16 18 17 17 16 15 15 15 15 14 13 12 11 9 9 8 8 7 7 6 6 6 5 5 5 4 3 3 2 2 1 1 1
10 11 12 14 15 15 15 15 15 15 15 16 16 18 19 17 17 16 15 15 14 13 12 11 9 9 8 7 6 6 6 5 5 5 4 4 3 2 2 1 1 1 1 0
11 12 13 13 15 15 14 15 15 15 15 16 15 16 18 17 16 15 15 15 14 13 12 10 9 8 7 7 6 5 5 5 5 4 4 3 2 2 1 1 1 0 -0 -1
12 12 12 13 13 12 15 17 16 16 16 16 16 17 17 16 16 16 16 15 14 13 11 10 9 8 7 6 5 5 4 4 4 3 3 2 1 1 1 0 0 -0 -1 -1
13 12 12 12 12 13 16 16 16 15 15 16 16 16 14 14 13 12 14 14 13 12 11 9 8 7 6 5 5 4 4 4 3 3 2 1 1 1 0 -0 -0 -1 -1 -2
12 12 11 11 12 12 15 15 16 16 15 16 16 15 12 12 11 10 11 12 11 10 9 8 7 6 5 4 4 4 4 3 2 2 1 1 0 0 -0 -1 -1 -1 -2 -2
10 10 10 11 11 12 13 14 14 14 13 13 15 14 12 12 12 10 10 9 9 9 8 7 6 5 4 4 4 3 3 2 2 1 1 0 -0 -0 -1 -1 -1 -2 -3 -3
10 10 10 10 10 11 13 13 13 12 12 13 13 12 10 9 8 8 8 8 8 7 6 6 5 4 4 3 3 3 2 1 1 1 0 0 -0 -1 -1 -2 -2 -3 -4 -4
11 12 11 11 11 12 13 12 12 13 12 12 11 10 9 7 6 6 6 6 6 6 5 5 5 4 3 3 2 2 1 1 1 0 0 -0 -1 -1 -2 -2 -3 -4 -4 -5
12 13 13 12 11 11 12 11 12 12 11 11 10 9 9 7 6 6 6 5 5 5 5 4 4 4 3 2 2 1 1 0 0 0 -0 -1 -1 -2 -2 -3 -4 -5 -5 -6
12 11 12 12 10 10 10 11 11 11 10 10 9 9 9 8 7 7 6 6 5 5 4 4 3 3 2 2 1 1 0 0 0 -0 -1 -1 -2 -2 -3 -4 -4 -5 -6 -7
10 11 11 11 11 10 9 10 10 10 9 9 9 8 8 8 7 7 6 6 5 4 4 3 2 2 1 1 1 0 0 -0 -0 -1 -1 -2 -2 -3 -4 -4 -5 -5 -6 -7
Wind_Speed
9 11 17 21 24 23 20 20 21 20 18 19 19 18 15 14 13 12 10 9 7 10 11 8 7 6 6 6 7 8 9 9 9 8 8 8 8 8 7 7 11 13 13 13
11 19 23 20 22 25 27 24 21 17 18 18 14 15 12 14 15 12 11 10 10 13 11 8 8 8 8 8 8 9 10 11 10 9 8 8 8 7 7 5 8 12 13 12
22 15 15 21 24 26 29 25 20 17 16 14 7 10 14 15 15 12 10 8 12 16 13 10 9 9 9 9 9 10 11 12 12 12 10 9 7 6 6 6 6 8 12 12
17 20 19 20 24 24 25 24 21 19 12 7 10 6 13 19 17 12 10 9 14 15 14 12 11 10 9 9 9 10 11 11 10 9 9 9 8 7 6 5 5 7 10 10
11 11 17 21 24 23 15 17 21 16 12 8 10 6 7 6 11 11 10 11 14 14 14 13 11 10 10 9 9 9 11 11 11 10 10 10 8 6 5 6 7 7 6 8
17 12 10 14 17 21 15 15 13 7 6 7 9 8 7 8 15 16 12 13 15 15 15 13 11 11 10 9 9 10 11 11 11 11 10 10 10 9 8 7 6 5 5 6
13 15 10 6 10 15 17 11 7 8 7 6 10 8 7 2 9 16 17 16 15 15 15 14 12 11 10 10 9 9 11 11 10 11 10 10 10 10 9 6 6 6 5 5
8 9 12 10 10 9 17 13 6 7 8 6 10 9 3 10 10 12 16 17 16 15 14 13 12 11 10 10 10 10 10 10 10 10 10 9 9 6 6 7 6 6 4 4
6 6 9 12 9 7 10 14 5 1 9 6 7 6 7 8 9 11 15 17 16 15 15 13 12 11 11 10 10 10 10 10 10 9 9 9 8 7 7 7 6 4 4 4
3 6 5 7 5 9 8 8 4 3 8 6 10 9 10 12 11 11 15 17 16 15 15 14 13 12 10 9 10 10 10 10 10 9 8 8 7 7 7 6 6 5 5 5
3 4 2 6 9 10 9 8 6 3 2 3 7 3 4 13 13 13 14 17 17 16 16 14 13 12 11 10 10 10 10 10 9 8 8 8 7 6 6 6 5 5 5 5
7 4 3 3 3 6 6 7 6 2 0 3 4 4 5 10 9 11 14 16 16 15 14 13 13 12 11 10 10 10 9 9 9 8 8 8 6 6 6 5 4 4 5 5
9 6 3 4 3 4 5 7 7 4 2 1 3 5 4 9 8 8 13 15 15 15 14 13 13 12 11 10 10 10 10 9 8 8 8 7 6 6 5 4 4 5 5 6
7 5 5 3 5 8 7 9 9 6 3 2 2 8 7 9 9 9 12 14 15 15 14 13 12 11 11 10 10 10 10 9 9 8 8 7 5 4 4 4 4 5 5 6
4 5 6 7 5 11 11 12 12 11 8 4 3 7 10 11 11 11 12 13 15 15 15 14 13 11 11 10 10 11 10 9 9 8 7 6 4 3 3 4 4 5 6 7
5 5 5 4 4 8 10 14 15 14 12 10 8 4 5 10 11 11 13 13 14 15 14 14 13 13 12 11 11 11 10 9 8 8 7 5 2 2 2 4 5 6 7 7
7 4 3 2 4 4 6 13 16 14 13 13 13 10 1 5 10 13 13 13 12 13 13 13 12 12 11 11 11 11 9 9 8 7 6 4 2 2 3 5 6 7 7 7
8 6 3 0 4 5 5 7 12 14 14 14 11 8 6 6 7 7 8 11 11 12 13 12 11 12 12 11 12 11 10 9 8 6 5 3 1 2 4 5 6 6 6 7
8 5 2 1 4 5 5 3 5 9 10 12 13 9 7 12 9 7 7 8 10 11 12 11 12 13 12 13 12 11 9 8 7 5 4 2 1 3 5 6 6 7 7 8
5 3 2 1 2 3 2 2 3 2 5 4 8 10 13 12 7 5 7 12 13 14 13 14 14 15 13 12 11 10 9 7 6 5 3 1 2 3 5 6 6 6 7 8
7 4 5 3 3 5 2 1 1 4 3 6 3 9 12 6 6 13 14 14 14 14 15 15 14 13 11 10 10 9 8 7 6 4 1 1 2 4 5 5 6 7 7 8
9 7 7 5 5 7 3 3 1 2 1 4 8 13 14 15 17 16 14 14 14 14 14 14 13 12 9 9 9 9 8 7 5 3 1 2 3 4 5 6 7 7 8 8
10 10 7 8 7 2 4 5 3 3 5 7 9 15 18 17 15 15 13 12 12 12 11 12 13 11 8 7 8 9 7 6 4 1 1 3 4 5 5 6 7 7 7 7
5 5 5 5 5 6 5 4 3 7 9 10 12 13 15 16 15 14 13 11 10 10 11 11 11 11 8 7 7 8 7 5 2 0 2 3 5 6 6 5 5 6 6 7
6 6 5 4 6 6 4 4 8 11 12 13 12 12 14 16 14 13 12 11 9 9 8 9 9 9 9 8 7 7 6 4 2 2 3 4 5 5 6 6 6 7 6 9
6 6 7 6 9 7 7 9 11 13 12 13 15 13 11 13 13 12 10 9 9 9 8 9 9 9 9 8 7 6 5 3 2 2 3 4 4 5 6 7 7 11 13 19
Wind_Direction
207 215 223 223 227 237 244 232 224 222 217 224 227 234 234 234 244 240 233 226 179 124 113 119 132 127 99 77 83 97 105 102 99 100 99 94 87 79 68 63 61 58 53 48
228 230 234 235 235 235 241 245 233 221 215 221 228 237 237 232 231 226 223 216 159 124 122 125 124 107 95 85 81 82 86 88 90 93 94 97 97 89 82 68 59 60 54 47
228 236 233 234 234 232 234 237 231 220 211 208 220 254 247 243 236 225 215 197 145 137 135 133 109 90 82 78 80 88 87 91 95 97 101 105 99 95 86 79 70 61 58 47
239 242 241 237 236 229 233 229 230 223 197 194 193 243 242 224 213 203 190 168 138 134 133 128 116 102 92 85 83 90 96 101 105 108 109 107 103 100 98 100 96 84 69 54
232 226 226 232 236 228 233 227 225 220 204 206 190 217 273 191 168 175 175 149 133 132 130 125 119 112 101 91 85 84 84 82 81 82 86 93 95 98 89 80 74 82 76 61
249 246 236 234 232 226 232 233 221 211 208 218 208 210 258 216 179 174 162 141 135 132 126 119 114 109 103 95 89 87 86 81 78 80 80 85 87 82 75 67 59 59 66 56
246 240 221 230 225 218 223 204 171 171 183 206 194 204 232 62 127 152 151 145 140 136 133 131 130 126 122 114 109 104 100 93 85 82 78 76 78 78 71 67 58 53 47 40
233 234 200 199 219 211 211 202 178 154 160 178 189 200 174 114 87 120 139 141 141 141 140 141 139 133 130 128 122 113 106 99 93 89 86 80 77 76 70 63 61 57 49 35
248 243 176 190 200 211 192 209 255 200 162 159 166 176 117 117 114 130 141 145 149 150 147 146 139 135 136 134 124 117 111 106 101 96 91 84 80 77 72 67 58 49 36 22
268 275 193 172 190 236 244 215 240 235 166 162 168 183 172 168 162 161 157 157 156 154 151 147 143 140 139 130 124 120 115 110 101 94 93 91 80 76 74 68 54 35 24 16
187 277 208 165 195 205 195 202 226 265 329 150 150 141 121 157 161 165 165 161 161 158 154 149 145 140 132 127 127 121 116 113 109 104 93 86 76 67 70 67 49 25 13 1
171 244 238 202 206 226 227 197 211 174 160 335 90 90 71 105 121 149 155 156 156 153 149 145 142 137 135 137 133 127 123 115 110 105 100 95 85 68 62 57 38 17 1 345
169 217 190 151 173 207 226 211 226 281 337 290 86 133 114 107 107 127 143 149 151 150 147 145 143 144 147 145 138 131 123 119 114 108 105 97 83 67 51 38 17 359 342 327
179 235 243 198 176 171 183 199 210 218 219 218 146 133 152 132 131 134 140 147 150 153 153 151 150 151 150 145 138 130 124 119 112 103 97 89 80 69 41 17 354 336 325 318
205 263 258 261 203 171 177 192 206 217 228 228 203 158 164 159 154 152 150 151 153 159 160 157 155 154 148 141 134 128 123 118 115 108 103 96 78 62 27 357 335 321 313 309
200 277 278 250 184 176 186 196 205 215 225 243 271 272 148 147 140 145 154 159 163 166 162 156 154 151 147 141 134 127 121 119 116 113 110 106 78 43 1 324 310 303 299 297
183 234 260 208 161 156 215 208 208 214 218 222 233 237 214 127 143 154 160 164 165 161 156 155 152 147 141 135 130 126 122 117 113 112 112 106 66 0 323 310 306 301 301 304
194 227 282 144 146 207 237 194 199 214 221 219 226 222 211 172 131 111 133 149 149 147 147 144 139 131 126 121 119 116 116 116 118 121 121 114 64 325 316 309 307 307 308 308
200 206 249 203 214 243 226 193 191 205 231 219 220 208 142 112 81 45 49 111 125 127 129 126 123 120 117 117 118 118 118 122 125 122 113 99 10 316 309 307 307 308 308 306
190 199 216 234 222 237 88 57 360 143 247 248 209 178 148 132 139 159 100 93 98 104 110 114 114 114 115 118 122 125 129 132 127 118 110 69 308 304 301 303 306 305 305 299
168 185 204 205 237 281 81 39 40 158 228 340 19 139 143 136 127 123 107 99 101 105 109 112 114 116 120 124 125 126 127 123 118 115 129 288 301 303 300 300 297 298 299 300
169 173 183 181 212 244 158 137 120 142 50 34 74 102 102 101 104 107 107 108 110 112 113 115 116 115 116 120 123 122 120 118 120 138 218 284 300 303 305 300 298 300 302 302
184 184 176 189 204 157 112 95 86 111 106 90 95 110 116 114 114 114 112 114 116 117 116 117 120 118 114 115 121 123 122 123 130 154 288 307 311 303 300 300 301 303 300 300
170 173 177 178 171 149 117 103 102 106 103 99 111 116 118 120 121 120 120 121 120 119 122 126 126 125 120 111 103 115 122 125 125 36 328 318 310 305 305 300 296 297 300 303
150 161 177 172 129 127 152 147 120 102 97 96 95 103 116 120 123 125 127 128 128 127 126 130 133 133 133 128 119 119 123 118 86 2 329 315 309 309 307 300 294 301 289 299
166 175 178 197 177 166 169 148 124 116 113 111 109 102 104 116 122 124 126 129 131 131 129 129 129 130 133 133 132 129 122 109 71 343 323 319 318 314 308 306 307 308 311 315
Height
1469 1472 1467 1463 1464 1462 1457 1453 1451 1448 1447 1448 1449 1449 1448 1449 1450 1450 1452 1454 1455 1458 1461 1464 1466 1467 1467 1468 1469 1470 1471 1474 1476 1478 1480 1483 1485 1487 1489 1491 1492 1493 1493 1493
1467 1462 1457 1459 1460 1460 1458 1455 1449 1444 1441 1442 1444 1444 1441 1441 1442 1443 1446 1448 1451 1454 1459 1463 1466 1467 1467 1468 1469 1471 1472 1474 1476 1478 1480 1483 1485 1488 1490 1491 1492 1492 1492 1492
1457 1451 1454 1456 1456 1456 1453 1452 1448 1443 1436 1436 1442 1446 1440 1435 1434 1436 1439 1442 1445 1449 1456 1462 1465 1466 1467 1468 1469 1471 1472 1474 1477 1479 1481 1484 1486 1488 1490 1491 1492 1492 1491 1490
1450 1448 1450 1450 1450 1451 1448 1444 1443 1438 1438 1443 1445 1454 1433 1422 1427 1430 1434 1438 1442 1448 1454 1460 1463 1465 1466 1468 1470 1472 1474 1476 1479 1481 1483 1485 1486 1488 1490 1491 1491 1491 1490 1488
1442 1440 1442 1443 1443 1446 1442 1438 1438 1434 1436 1438 1436 1444 1433 1415 1424 1427 1430 1435 1440 1446 1453 1458 1462 1464 1466 1469 1471 1473 1475 1477 1480 1482 1484 1486 1487 1488 1490 1490 1490 1489 1488 1486
1437 1435 1435 1435 1436 1440 1440 1438 1433 1431 1435 1444 1435 1440 1433 1414 1414 1421 1427 1433 1439 1446 1452 1457 1460 1463 1466 1469 1472 1474 1476 1478 1481 1483 1485 1486 1487 1488 1489 1489 1489 1488 1486 1484
1432 1429 1429 1432 1433 1434 1435 1432 1434 1440 1443 1440 1426 1432 1426 1407 1404 1411 1422 1431 1438 1445 1450 1455 1459 1463 1466 1469 1472 1475 1477 1479 1482 1484 1485 1486 1487 1487 1488 1488 1487 1486 1484 1482
1427 1423 1422 1425 1425 1421 1422 1424 1424 1428 1435 1428 1419 1424 1414 1407 1407 1412 1420 1429 1437 1444 1449 1454 1458 1462 1466 1469 1473 1475 1477 1479 1481 1483 1484 1485 1486 1487 1487 1486 1485 1484 1482 1480
1423 1416 1413 1417 1419 1421 1416 1416 1403 1403 1410 1418 1419 1412 1413 1409 1412 1416 1422 1429 1436 1442 1448 1453 1458 1462 1465 1469 1472 1475 1477 1479 1481 1482 1483 1484 1485 1485 1485 1484 1483 1482 1480 1478
1424 1418 1412 1414 1418 1418 1413 1406 1406 1404 1409 1416 1416 1414 1413 1414 1415 1417 1421 1427 1434 1440 1446 1452 1456 1461 1465 1468 1471 1474 1476 1478 1479 1481 1482 1483 1483 1483 1483 1482 1481 1479 1477 1475
1422 1422 1413 1411 1412 1410 1409 1407 1403 1398 1394 1403 1416 1414 1393 1402 1406 1412 1417 1424 1430 1437 1444 1449 1455 1459 1463 1467 1470 1472 1474 1476 1478 1479 1480 1481 1482 1482 1481 1480 1478 1476 1474 1472
1417 1420 1413 1409 1406 1405 1402 1400 1399 1402 1401 1398 1403 1418 1395 1399 1402 1407 1413 1421 1429 1436 1442 1448 1453 1457 1461 1465 1468 1470 1472 1474 1476 1477 1479 1479 1480 1479 1478 1477 1476 1474 1472 1469
1411 1413 1408 1408 1410 1406 1402 1398 1396 1396 1398 1401 1408 1418 1399 1401 1404 1407 1412 1420 1427 1435 1441 1446 1450 1454 1459 1462 1466 1468 1470 1472 1474 1475 1477 1477 1477 1477 1476 1474 1473 1471 1469 1466
1404 1403 1401 1398 1396 1397 1399 1398 1397 1400 1406 1404 1401 1409 1403 1405 1407 1409 1413 1419 1426 1432 1438 1443 1447 1452 1456 1460 1463 1465 1468 1470 1472 1473 1474 1475 1475 1474 1473 1472 1470 1468 1466 1463
1403 1399 1393 1388 1384 1388 1392 1396 1397 1400 1400 1403 1398 1399 1402 1402 1404 1408 1413 1418 1424 1430 1435 1440 1444 1449 1454 1458 1461 1463 1465 1468 1470 1471 1472 1472 1472 1471 1470 1469 1467 1465 1462 1459
1400 1398 1391 1386 1382 1385 1389 1391 1394 1396 1398 1399 1398 1397 1391 1394 1400 1406 1411 1416 1421 1427 1432 1437 1442 1447 1451 1454 1457 1460 1463 1465 1467 1469 1470 1470 1469 1469 1467 1466 1464 1461 1458 1455
1395 1395 1392 1389 1383 1386 1393 1387 1389 1392 1392 1396 1400 1397 1393 1397 1399 1403 1408 1413 1418 1424 1429 1434 1439 1444 1448 1452 1455 1457 1461 1464 1466 1467 1467 1467 1467 1466 1464 1463 1460 1458 1454 1451
1390 1392 1392 1390 1391 1403 1385 1372 1376 1382 1384 1387 1388 1390 1392 1395 1399 1402 1406 1411 1416 1422 1427 1433 1438 1442 1446 1450 1453 1456 1460 1462 1464 1464 1465 1465 1464 1463 1462 1460 1457 1454 1451 1447
1386 1390 1393 1395 1394 1389 1377 1374 1373 1379 1382 1379 1382 1386 1391 1394 1400 1405 1407 1410 1415 1420 1425 1431 1436 1440 1444 1448 1451 1455 1458 1460 1462 1462 1462 1462 1462 1461 1459 1457 1454 1450 1446 1442
1386 1388 1395 1396 1397 1396 1381 1375 1372 1377 1383 1375 1375 1380 1387 1392 1404 1408 1409 1411 1415 1420 1425 1430 1434 1438 1443 1447 1451 1454 1457 1458 1460 1460 1460 1460 1459 1458 1456 1453 1450 1447 1442 1438
1389 1392 1395 1397 1397 1388 1380 1376 1376 1388 1386 1378 1375 1377 1384 1389 1395 1403 1407 1412 1416 1421 1425 1430 1434 1438 1443 1447 1451 1453 1455 1457 1458 1458 1458 1458 1457 1455 1453 1450 1447 1443 1438 1434
1383 1390 1394 1395 1398 1394 1379 1378 1381 1383 1381 1380 1379 1381 1386 1391 1396 1402 1408 1413 1418 1422 1427 1431 1434 1439 1443 1447 1450 1452 1454 1455 1456 1456 1456 1455 1454 1452 1450 1446 1443 1439 1434 1429
1373 1376 1379 1383 1384 1378 1377 1378 1380 1380 1381 1382 1383 1386 1389 1394 1400 1406 1411 1416 1420 1424 1428 1432 1435 1439 1443 1447 1449 1450 1452 1453 1453 1454 1453 1453 1451 1449 1446 1443 1439 1434 1430 1425
1365 1367 1370 1374 1375 1376 1377 1378 1380 1381 1383 1385 1387 1390 1393 1397 1403 1408 1413 1418 1422 1426 1429 1433 1437 1440 1443 1446 1447 1449 1450 1451 1451 1451 1451 1450 1448 1446 1443 1439 1435 1430 1426 1421
1361 1365 1368 1370 1373 1376 1377 1378 1380 1382 1385 1388 1392 1395 1397 1401 1406 1410 1415 1419 1423 1427 1430 1434 1437 1439 1442 1444 1446 1447 1448 1449 1449 1449 1448 1447 1445 1442 1438 1435 1431 1427 1423 1419
1360 1363 1366 1367 1366 1370 1373 1377 1380 1383 1387 1390 1394 1398 1402 1405 1408 1413 1417 1420 1424 1427 1430 1433 1436 1438 1440 1442 1444 1445 1446 1447 1447 1447 1445 1444 1441 1438 1434 1429 1425 1422 1419 1415